This is the latest recevied weather packets stored in our database for station/object AK4NG. If no packets are shown the sender has not sent any weather packets the latest 10 day(s).
| Time | Temp. | Humidity | Pressure | Rain* | Wind** | Luminosity | Snow |
|---|---|---|---|---|---|---|---|
| 1777820836 | 19.44° C | 43% | 1022.9 hPa | 0 mm | - | 695 W/m² | - |
| 1777820532 | 20° C | 43% | 1022.7 hPa | 0 mm | - | 683 W/m² | - |
| 1777820229 | 19.44° C | 45% | 1022.6 hPa | 0 mm | - | 666 W/m² | - |
| 1777819926 | 19.44° C | 44% | 1022.9 hPa | 0 mm | - | 652 W/m² | - |
| 1777819623 | 19.44° C | 46% | 1022.6 hPa | 0 mm | - | 637 W/m² | - |
| 1777819321 | 19.44° C | 48% | 1022.6 hPa | 0 mm | - | 622 W/m² | - |
| 1777819017 | 18.89° C | 46% | 1022.5 hPa | 0 mm | - | 604 W/m² | - |
| 1777818715 | 18.89° C | 48% | 1022.6 hPa | 0 mm | - | 585 W/m² | - |
| 1777818411 | 18.89° C | 45% | 1022.5 hPa | 0 mm | - | 568 W/m² | - |
| 1777818108 | 18.89° C | 49% | 1022.3 hPa | 0 mm | - | 554 W/m² | - |
| 1777817804 | 18.89° C | 51% | 1022.4 hPa | 0 mm | - | 538 W/m² | - |
| 1777817502 | 18.89° C | 52% | 1022.2 hPa | 0 mm | - | 517 W/m² | - |
| 1777817197 | 18.89° C | 50% | 1022.2 hPa | 0 mm | - | 497 W/m² | - |
| 1777816896 | 18.33° C | 51% | 1022.2 hPa | 0 mm | - | 477 W/m² | - |
| 1777816592 | 17.78° C | 54% | 1022.2 hPa | 0 mm | - | 456 W/m² | - |
| 1777816289 | 17.22° C | 52% | 1022.1 hPa | 0 mm | - | 438 W/m² | - |
| 1777815987 | 17.78° C | 56% | 1022.1 hPa | 0 mm | - | 419 W/m² | - |
| 1777815684 | 17.78° C | 54% | 1022.3 hPa | 0 mm | - | 400 W/m² | - |
| 1777815381 | 17.22° C | 57% | 1022.1 hPa | 0 mm | - | 380 W/m² | - |
| 1777815078 | 17.22° C | 59% | 1022.1 hPa | 0 mm | - | 360 W/m² | - |
| 1777814774 | 16.67° C | 58% | 1022 hPa | 0 mm | - | 341 W/m² | - |
| 1777814471 | 16.67° C | 59% | 1022 hPa | 0 mm | - | 322 W/m² | - |
| 1777814169 | 16.67° C | 63% | 1022.1 hPa | 0 mm | - | 304 W/m² | - |
| 1777813865 | 16.11° C | 62% | 1022 hPa | 0 mm | - | 286 W/m² | - |
| 1777813563 | 15° C | 63% | 1022.2 hPa | 0 mm | - | 265 W/m² | - |
* Rain latest hour (hover to see other rain measurements)
** Current wind speed in m/s (hover to see current wind gust speed)